Preview of NWS' New Version of Forecast
This preview is not operational and should not be used for support decisions.
Latest weather observations around

Wenatchee, Pangborn Memorial Airport (KEAT)

Using English Units (Switch to International System of Units)
Date/ Time (PDT) Wind (mph) Vis. (mi) Weather Sky Cond. Temp (°F) Rel. Humidity Wind Chill (°F) Heat Index (°F) Pressure Precip. (in)
Air Dwpt 6 hour Altimeter (inHg) Sea level (inHg) 1 hr 3 hr 6 hr
Max Min
Mar 21 18:55 Calm 10 Clear CLR 61 30     31%     29.89 29.9      
Mar 21 17:55 Calm 10 Clear CLR 64 31     29%     29.89 29.9      
Mar 21 16:55 Calm 10 Clear CLR 64 30     28%     29.91 29.91      
Mar 21 15:55 Calm 10 Clear CLR 63 31     30%     29.93 29.93      
Mar 21 14:55 Calm 10 Clear CLR 60 31     33%     29.94 29.95      
Mar 21 13:55 Calm 10 Clear CLR 57 30     36%     29.97 29.97      
Mar 21 12:55 Calm 10 Clear CLR 53 32     45%     29.99 30.01      
Mar 21 11:55 Calm 10 Clear CLR 50 30     46%     30.02 30.03      
Mar 21 10:55 WNW 6 10 Clear CLR 46 30     53% 43   30.03 30.04      
Mar 21 09:55 W 5 10 Clear CLR 42 31     64% 39   30.04 30.05      
Mar 21 08:55 W 11 10 Clear CLR 39 30     70% 32     30.06      
Mar 21 07:55 W 8 10 Clear CLR 36 29     75% 30   30.05 30.06      
Mar 21 06:55 WNW 8 10 Clear CLR 36 29     75% 30   30.04 30.06      
Mar 21 05:55 W 7 10 Clear CLR 37 29     72% 32   30.05 30.06      
Mar 21 04:55 WNW 5 10 Clear CLR 38 29     70% 34   30.05 30.06      
Mar 21 03:55 W 7 10 Clear CLR 37 29     72% 32   30.05 30.06      
Mar 21 02:55 WNW 10 10 Clear CLR 40 30     67% 33   30.05 30.06      
Mar 21 01:55 WNW 7 10 Clear CLR 39 30     70% 34   30.05 30.06      
Mar 21 00:55 W 8 10 Clear CLR 40 30     67% 34   30.04 30.05      
Mar 20 23:55 NW 7 10 Clear CLR 44 31     60% 40   30.03 30.04      
Mar 20 22:55 W 5 10 Clear CLR 44 31     60% 41   30.03 30.04      
Mar 20 21:55 NW 3 10 Clear CLR 48 31     51% 47   30.03 30.04      
Mar 20 20:55 W 3 10 Clear CLR 48 32     54% 47   30.01 30.02      
Mar 20 19:55 N 6 10 Clear CLR 53 30     41%     29.99 30.01      
Mar 20 18:55 Calm 10 Clear CLR 58 30     34%     29.98 29.98      
Mar 20 17:55 Calm 10 Clear CLR 60 30     32%     29.98 29.99      
Mar 20 16:55 E 3 10 Clear CLR 60 28     29%     29.99 30      
Mar 20 15:55 SW 5 10 Clear CLR 59 28     31%     29.99 30      
Mar 20 14:55 WSW 5 10 Clear CLR 58 30     34%     30 30.01      
Mar 20 13:55 WSW 3 10 Clear CLR 54 30     40%     30.03 30.05      
Mar 20 12:55 Calm 10 Clear   51 32     48%     30.06 30.07      
Mar 20 11:55 Calm 10 Clear CLR 47 31     53%     30.07 30.09      
Mar 20 10:55 WSW 3 10 Clear CLR 43 30     60% 41   30.09 30.11      
Mar 20 09:55 WSW 6 10 Clear CLR 40 29     65% 36   30.1 30.12      
Mar 20 08:55 WNW 7 10 Clear CLR 38 29     70% 33   30.11 30.12      
Mar 20 07:55 WNW 8 10 Clear CLR 35 28     75% 29   30.11 30.12      
Mar 20 06:55 WNW 7 10 Clear CLR 35 28     75% 29   30.11 30.12      
Mar 20 05:55 WNW 9 10 Clear CLR 35 27     72% 28   30.11 30.12      
Mar 20 03:55 W 7 10 Clear CLR 35 28     75% 29   30.12 30.13      
Mar 20 02:55 WNW 9 10 Clear CLR 35 28     75% 28   30.13 30.14      
Mar 20 01:55 WNW 7 10 Clear CLR 36 28     73% 30   30.14 30.15      
Mar 20 00:55 W 6 10 Clear CLR 37 28     70% 32   30.14 30.16      
Mar 19 23:55 WNW 10 10 Clear CLR 40 29     65% 33   30.14 30.16      
Mar 19 22:55 NW 7 10 Clear CLR 42 28     57% 38   30.14 30.16      
Mar 19 21:55 NW 6 10 Clear CLR 44 28     53% 41   30.15 30.17      
Mar 19 20:55 WNW 6 10 Clear CLR 48 27     44% 45   30.15 30.16      
Mar 19 19:55 NNW 7 10 Clear CLR 50 30     46%     30.14 30.16      
Mar 19 18:55 Calm 10 Clear CLR 55 30     38%     30.13 30.15      
Mar 19 17:55 W 3 10 Clear CLR 56 26     31%     30.14 30.15      
Mar 19 15:55 Calm 10 Clear CLR 57 27     31%     30.18 30.19      
Mar 19 14:55 Calm 10 Clear CLR 54 28     37%     30.2 30.22      
Mar 19 12:55 Calm   Clear CLR 49 29     46%     30.25 30.27      
Mar 19 12:52 Calm 10 Clear   48 28     46%     30.25        
Mar 19 11:55 Calm 10 Clear CLR 47 30     52%     30.27 30.29      
Mar 19 10:55 Calm 10 Clear   42 30     62%     30.28 30.31      
Mar 19 09:55 W 5 10 Clear CLR 38 30     73% 34   30.29 30.31      
Mar 19 08:55 WNW 6 10 Clear CLR 35 29     78% 30   30.29 30.31      
Mar 19 07:55 WNW 6 10 Clear CLR 33 27     78% 28   30.28 30.31      
Mar 19 06:55 W 5 10 Clear CLR 32 26     78% 27   30.28 30.3      
Mar 19 05:55 NNW 6 10 Clear CLR 34 28     79% 29   30.27 30.29      
Mar 19 04:55 WNW 6 10 Clear CLR 34 28     79% 29   30.27 30.29      
Mar 19 03:55 WNW 8 10 Clear CLR 34 28     79% 27   30.27 30.29      
Mar 19 02:55 W 9 10 Clear CLR 35 28     75% 28   30.28 30.29      
Mar 19 01:55 NW 11 10 Clear CLR 38 29     70% 30   30.27 30.29      
Mar 19 00:55 NNW 5 10 Clear CLR 36 28     73% 32   30.27 30.29      
Mar 18 23:55 NW 5 10 Clear CLR 40 29     65% 37   30.28 30.29      
Mar 18 22:55 NW 6 10 Clear CLR 40 29     65% 36   30.27 30.29      
Mar 18 21:55 NW 5 10 Clear CLR 44 29     55% 41   30.26 30.29      
Mar 18 20:55 NNW 3 10 Clear CLR 47 29     49% 46   30.25 30.28      
Mar 18 19:56 NW 3 10 Clear   45 30     56% 44   30.25 30.27      
Notice The following observation data may not be complete
May 13 19:55 NNW 3 10 Clear CLR   41      %     29.89 29.87      
May 13 16:55 S 8 10 Clear CLR 85        %     29.89 29.87      
May 13 15:55 W 7 10 Clear CLR 86        %     29.9 29.87      
May 13 08:55 WNW 14 10 Clear CLR 63 42     46%     29.97 29.95      
May 12 19:55 Calm 10 Clear CLR 79 35     20%   78 29.88 29.86      
May 12 13:55 WNW 14 10 Clear CLR 81 34     18%   80 29.96 29.93      
May 11 21:55 E 8 10 Cloudy OVC100 60 51     72%     30.1 30.09      
May 11 10:55   10 Cloudy BKN075 OVC095 63 40     43%     30.08 30.07     0
Jun 12 00:55 W 13 10 Clear CLR 60 43     53%     29.85 29.84      
Jun 11 21:55 WNW 14 10 Clear CLR 65 42     43%     29.86 29.85      
Jun 11 19:55 WNW 7 10 Clear   72 37     28%   70 29.85 29.83      
Jun 11 08:55   10 Clear CLR 60 39     46%     29.96 29.95      
Jun 10 01:55 NW 11 10 Clear CLR 52 36     54%     29.74 29.74      
Jun 10 00:55 NW 14 10 Clear CLR 53 35     50%     29.74 29.73      
Jun 09 22:55 WNW 14 10 Clear CLR 57 35     44%     29.73 29.72     0
Jun 09 20:55 WNW 11 10 Clear CLR 61 35     38%     29.69 29.68      
Jun 09 10:55 6 10 Clear CLR 60 35     39%     29.8 29.79      
Jun 08 11:55   8 Rain BKN055 BKN075 OVC090 64 57     78%     29.63 29.61 0    
Jun 08 07:55 S 10 10 Clear CLR 71 51     49%   70 29.57 29.54      
Jun 05 19:55 SE 7 10 Clear   71 35     27%   69 30.06 30.05